EW2817 Weather Reports


time (UTC)temp
C
wind
direction
speed
KPH
gust
KPH
rain 1hr
cm
rain 24hr
cm
rain mn
cm
humidity
%
barometer
mb
20260504220924 25 0 0.0 0.0 0.00 0.00 0.00 36 989.6
20260504215425 25 0 0.0 0.0 0.00 0.00 0.00 37 989.6
20260504213922 25 0 0.0 0.0 0.00 0.00 0.00 36 989.6
20260504212420 25 0 0.0 0.0 0.00 0.00 0.00 36 989.6
20260504210919 25 0 0.0 0.0 0.00 0.00 0.00 37 989.6
20260504205419 25 0 0.0 0.0 0.00 0.00 0.00 35 989.7
20260504203918 25 0 0.0 0.0 0.00 0.00 0.00 36 989.8
20260504202417 25 0 0.0 0.0 0.00 0.00 0.00 35 989.9
20260504200912 25 0 0.0 0.0 0.00 0.00 0.00 34 990.1
20260504195410 25 0 0.0 0.0 0.00 0.00 0.00 35 990.1
20260504192409 25 0 0.0 0.0 0.00 0.00 0.00 32 990.5
20260504185406 26 0 0.0 0.0 0.00 0.00 0.00 32 990.9
20260504183905 26 0 0.0 0.0 0.00 0.00 0.00 32 990.9
20260504182402 26 0 0.0 0.0 0.00 0.00 0.00 33 991.2
20260504180902 26 0 0.0 0.0 0.00 0.00 0.00 32 991.3
20260504175402 26 0 0.0 0.0 0.00 0.00 0.00 32 991.3
20260504173904 25 0 0.0 0.0 0.00 0.00 0.00 34 991.5
20260504172401 26 0 0.0 0.0 0.00 0.00 0.00 34 991.5
20260504150848 21 0 0.0 0.0 0.00 0.00 0.00 47 993.1
20260504140844 16 0 0.0 0.0 0.00 0.00 0.00 71 993.2
20260504080813 10 0 0.0 0.0 0.00 0.00 0.00 68 993.2
20260504045300 11 0 0.0 0.0 0.00 0.00 0.00 65 993.4
20260504043759 11 0 0.0 0.0 0.00 0.00 0.00 64 993.5
20260504042256 11 0 0.0 0.0 0.00 0.00 0.00 63 993.5
20260504040754 11 0 0.0 0.0 0.00 0.00 0.00 62 993.5
20260504035254 11 0 0.0 0.0 0.00 0.00 0.00 59 993.4
20260504033755 11 0 0.0 0.0 0.00 0.00 0.00 58 993.4
20260504032254 11 0 0.0 0.0 0.00 0.00 0.00 57 993.6
20260504025253 12 0 0.0 0.0 0.00 0.00 0.00 56 993.4
20260504023754 12 0 0.0 0.0 0.00 0.00 0.00 55 993.3
20260504022254 12 0 0.0 0.0 0.00 0.00 0.00 55 993.1
20260504020754 12 0 0.0 0.0 0.00 0.00 0.00 53 993.2
20260504015252 12 0 0.0 0.0 0.00 0.00 0.00 55 993.2
20260504013752 12 0 0.0 0.0 0.00 0.00 0.00 54 993.1
20260504012252 12 0 0.0 0.0 0.00 0.00 0.00 53 993.0
20260504010750 13 0 0.0 0.0 0.00 0.00 0.00 54 992.8
20260504005247 13 0 0.0 0.0 0.00 0.00 0.00 53 992.6
20260504003737 13 0 0.0 0.0 0.00 0.00 0.00 50 992.5
20260504002237 14 0 0.0 0.0 0.00 0.00 0.00 52 992.5
20260504000738 15 0 0.0 0.0 0.00 0.00 0.00 51 992.4
20260503235231 15 0 0.0 0.0 0.00 0.00 0.00 48 992.3
20260503233732 16 0 0.0 0.0 0.00 0.00 0.00 46 992.1
20260503232231 16 0 0.0 0.0 0.00 0.00 0.00 45 992.1
20260503230731 16 0 0.0 0.0 0.00 0.00 0.00 44 992.1
20260503225229 17 0 0.0 0.0 0.00 0.00 0.00 42 992.2